Torna al catalogo

CZ-6A DEB

AttivoSSO
NORAD 56269·DEBRIS·🇨🇳 China

Lanciato Nov 11, 2022 da Taiyuan Satellite Launch Center

Loading…

Prossimi Passaggi (prossime 24 ore)

TLE

AggiornatoSource: Space-Track

Epoca: Sep 14, 2026, 05:33 UTC

1 56269U 22151ACM 26257.23155302  .00000331  00000-0  19953-3 0  9999
2 56269  98.8358 260.5366 0038531  73.1809 287.3584 14.12923959183348

Traccia CZ-6A DEB in tempo reale con AllMySat

Download on the App Store